TimeCDT,TemperatureF,Dew PointF,Humidity,Sea Level PressureIn,VisibilityMPH,Wind Direction,Wind SpeedMPH,Gust SpeedMPH,PrecipitationIn,Events,Conditions,WindDirDegrees,DateUTC
12:05 AM,66.2,64.4,94,29.93,1.8,WSW,9.2,28.8,0.19,Rain-Thunderstorm,Heavy Thunderstorms and Rain,250,2013-05-31 05:05:00
12:14 AM,66.2,62.6,88,29.89,1.2,SSE,10.4,-,0.39,Rain-Thunderstorm,Heavy Thunderstorms and Rain,160,2013-05-31 05:14:00
12:22 AM,64.4,64.4,100,29.87,2.0,SSE,9.2,-,0.43,Rain-Thunderstorm,Heavy Thunderstorms and Rain,160,2013-05-31 05:22:00
12:32 AM,64.4,64.4,100,29.88,10.0,SSE,8.1,-,0.43,Rain,Light Rain,160,2013-05-31 05:32:00
12:39 AM,64.4,64.4,100,29.87,10.0,SE,5.8,-,0.43,Rain-Thunderstorm,Light Thunderstorms and Rain,140,2013-05-31 05:39:00
12:53 AM,64.9,63.0,93,29.80,10.0,SE,15.0,18.4,0.43,Rain,Light Rain,140,2013-05-31 05:53:00
1:53 AM,64.0,62.1,93,29.81,10.0,SSE,8.1,-,0.00,,Clear,150,2013-05-31 06:53:00
2:53 AM,64.0,62.1,93,29.82,10.0,SE,8.1,-,N/A,,Clear,140,2013-05-31 07:53:00
3:53 AM,64.0,63.0,96,29.81,10.0,SE,6.9,-,N/A,,Clear,130,2013-05-31 08:53:00
4:49 AM,64.4,64.4,100,29.83,10.0,SE,10.4,-,N/A,,Scattered Clouds,130,2013-05-31 09:49:00
4:53 AM,64.9,64.0,97,29.80,10.0,SE,9.2,-,N/A,,Mostly Cloudy,130,2013-05-31 09:53:00
5:33 AM,64.4,64.4,100,29.84,9.0,SE,12.7,-,N/A,,Overcast,130,2013-05-31 10:33:00
5:53 AM,64.9,64.9,100,29.81,8.0,SE,6.9,-,N/A,,Overcast,140,2013-05-31 10:53:00
6:25 AM,64.4,64.4,100,29.84,1.8,SE,4.6,-,N/A,,Overcast,130,2013-05-31 11:25:00
6:37 AM,64.4,64.4,100,29.83,3.0,ESE,8.1,-,N/A,,Mostly Cloudy,120,2013-05-31 11:37:00
6:53 AM,66.0,66.0,100,29.80,7.0,East,5.8,-,N/A,,Mostly Cloudy,100,2013-05-31 11:53:00
7:00 AM,66.2,66.2,100,29.84,7.0,ESE,5.8,-,N/A,,Scattered Clouds,110,2013-05-31 12:00:00
7:13 AM,66.2,66.2,100,29.84,10.0,Calm,Calm,-,N/A,,Mostly Cloudy,0,2013-05-31 12:13:00
7:53 AM,72.0,68.0,87,29.81,10.0,South,8.1,-,N/A,,Mostly Cloudy,190,2013-05-31 12:53:00
8:31 AM,73.4,68.0,83,29.85,10.0,South,9.2,-,N/A,,Overcast,190,2013-05-31 13:31:00
8:53 AM,73.0,68.0,84,29.81,10.0,South,9.2,-,N/A,,Overcast,180,2013-05-31 13:53:00
9:53 AM,73.0,68.0,84,29.83,10.0,SSW,9.2,19.6,N/A,,Overcast,200,2013-05-31 14:53:00
10:53 AM,75.0,68.0,79,29.83,10.0,South,9.2,-,N/A,,Overcast,190,2013-05-31 15:53:00
11:41 AM,77.0,69.8,78,29.87,10.0,South,11.5,16.1,N/A,,Mostly Cloudy,180,2013-05-31 16:41:00
11:53 AM,79.0,70.0,74,29.82,10.0,South,11.5,-,N/A,,Scattered Clouds,180,2013-05-31 16:53:00
12:53 PM,81.0,70.0,69,29.81,10.0,SSW,8.1,18.4,N/A,,Mostly Cloudy,200,2013-05-31 17:53:00
1:53 PM,80.1,69.1,69,29.81,10.0,South,6.9,-,N/A,,Overcast,180,2013-05-31 18:53:00
2:53 PM,82.0,68.0,62,29.81,10.0,SW,9.2,-,N/A,,Overcast,220,2013-05-31 19:53:00
3:53 PM,82.9,70.0,65,29.79,10.0,South,8.1,-,N/A,,Overcast,190,2013-05-31 20:53:00
4:53 PM,82.9,70.0,65,29.77,10.0,South,9.2,-,N/A,,Scattered Clouds,180,2013-05-31 21:53:00
5:53 PM,82.0,70.0,67,29.76,10.0,South,13.8,-,N/A,,Mostly Cloudy,170,2013-05-31 22:53:00
6:53 PM,81.0,70.0,69,29.69,10.0,SSE,11.5,-,N/A,,Partly Cloudy,160,2013-05-31 23:53:00
7:53 PM,79.0,69.1,72,29.74,10.0,South,5.8,-,N/A,,Mostly Cloudy,170,2013-06-01 00:53:00
8:53 PM,78.1,69.1,74,29.74,10.0,South,11.5,-,N/A,,Clear,170,2013-06-01 01:53:00
9:53 PM,77.0,70.0,79,29.76,10.0,South,6.9,-,N/A,,Clear,180,2013-06-01 02:53:00
10:42 PM,75.2,69.8,83,29.85,10.0,NW,4.6,-,N/A,,Mostly Cloudy,310,2013-06-01 03:42:00
10:53 PM,77.0,70.0,79,29.80,10.0,Calm,Calm,-,N/A,,Overcast,0,2013-06-01 03:53:00
11:21 PM,77.0,71.6,83,29.84,10.0,South,3.5,-,N/A,,Mostly Cloudy,180,2013-06-01 04:21:00
11:53 PM,77.0,71.1,82,29.79,10.0,SSE,8.1,-,N/A,,Mostly Cloudy,160,2013-06-01 04:53:00